DW9615 Home Hill AU current weather conditions

sailwx.info

Wind from 085 at 5 knots gusting 11

Air temperature 24.4° C
Dewpoint 13.3° C

Last reported at 2015-Aug-01 03:44 UTC.
Time now 2015-Aug-01 05:47 UTC

Location: S 19°40' E 147°25'.
View on Google Maps.

See reports from other nearby stations

  
Tides and Currents Weather Stations Pressure Air Temp Water Temp Dewpoint Dewpoint Depression Visibility Wind Speed Wind Dir Waves Ship Positions
date/time (UTC)wind fromknots sea level pressurealtimeterstation pressurevisibilityair tempwater tempwave heightnotes
2015-Aug-01 03:44 085 5 gusting 11 24.4
2015-Aug-01 03:29 037 6 gusting 10 24.4
2015-Aug-01 03:14 073 6 gusting 11 25.0
2015-Aug-01 02:59 033 5 gusting 13 25.0
2015-Aug-01 02:44 039 3 gusting 10 24.4
2015-Aug-01 02:29 107 5 gusting 11 24.4
2015-Aug-01 02:14 135 3 gusting 10 24.4
2015-Aug-01 01:59 055 4 gusting 11 23.9
2015-Aug-01 01:44 060 4 gusting 11 23.9
2015-Aug-01 01:29 109 6 gusting 13 23.9
2015-Aug-01 01:14 141 5 gusting 13 23.3
2015-Aug-01 00:59 108 5 gusting 13 23.3
2015-Aug-01 00:43 064 5 gusting 10 22.8
2015-Aug-01 00:28 108 3 gusting 11 22.8
2015-Aug-01 00:13 112 5 gusting 7 22.8
2015-Jul-31 23:58 146 3 gusting 10 22.8
2015-Jul-31 23:43 129 3 gusting 11 22.2
2015-Jul-31 23:28 128 4 gusting 9 21.7
2015-Jul-31 23:13 118 3 gusting 8 21.1
2015-Jul-31 22:58 192 3 gusting 6 20.0
2015-Jul-31 22:43 165 2 gusting 5 18.9
2015-Jul-31 22:28 175 2 gusting 5 17.8
2015-Jul-31 22:13 165 1 gusting 4 17.2
2015-Jul-31 21:58 165 1 gusting 3 16.1
2015-Jul-31 21:43 266 15.0
2015-Jul-31 21:28 250 13.9
2015-Jul-31 21:13 199 0 gusting 2 13.3
2015-Jul-31 20:58 200 12.8
2015-Jul-31 20:43 200 12.2
2015-Jul-31 20:28 200 12.2
2015-Jul-31 20:13 202 12.2
2015-Jul-31 19:58 202 12.2
2015-Jul-31 19:43 202 12.8
2015-Jul-31 19:28 202 12.8
2015-Jul-31 19:13 202 12.8
2015-Jul-31 18:57 202 13.3
2015-Jul-31 18:42 185 13.3
2015-Jul-31 18:27 185 0 gusting 2 13.3
2015-Jul-31 18:12 134 13.3
2015-Jul-31 17:57 129 13.3
2015-Jul-31 17:42 129 13.3
2015-Jul-31 17:27 129 13.9
2015-Jul-31 17:12 129 13.9
2015-Jul-31 16:57 129 13.9
2015-Jul-31 16:42 154 13.9
2015-Jul-31 16:27 154 13.9
2015-Jul-31 16:12 154 13.9
2015-Jul-31 15:57 154 13.9
2015-Jul-31 15:42 154 14.4
2015-Jul-31 15:27 154 14.4
2015-Jul-31 15:12 154 14.4
2015-Jul-31 14:57 154 15.0
2015-Jul-31 14:42 154 15.0
2015-Jul-31 14:27 154 15.6
2015-Jul-31 14:12 154 15.6
2015-Jul-31 13:57 154 16.1
2015-Jul-31 13:42 154 16.1
2015-Jul-31 13:27 154 16.1
2015-Jul-31 13:12 154 0 gusting 1 16.7
2015-Jul-31 12:57 137 16.7
2015-Jul-31 12:42 091 17.2
2015-Jul-31 12:27 091 17.8
2015-Jul-31 12:12 090 17.8
2015-Jul-31 11:57 105 18.3
2015-Jul-31 11:42 124 1 gusting 4 18.9
2015-Jul-31 11:27 077 3 gusting 8 19.4
2015-Jul-31 11:12 102 2 gusting 9 19.4
2015-Jul-31 10:57 076 4 gusting 10 20.0
2015-Jul-31 10:42 074 6 gusting 13 20.0
2015-Jul-31 10:27 077 6 gusting 12 20.0
2015-Jul-31 10:12 088 6 gusting 12 20.0
2015-Jul-31 09:57 077 6 gusting 12 20.0
2015-Jul-31 09:42 062 4 gusting 8 20.0
2015-Jul-31 09:27 058 4 gusting 9 20.0
2015-Jul-31 09:13 058 3 gusting 9 20.0
2015-Jul-31 08:57 031 3 gusting 6 20.0
2015-Jul-31 08:42 075 2 gusting 7 20.6
2015-Jul-31 08:27 048 2 gusting 5 20.6
2015-Jul-31 08:12 060 2 gusting 6 21.1
2015-Jul-31 07:57 051 3 gusting 6 21.1
2015-Jul-31 07:42 059 4 gusting 9 21.7
2015-Jul-31 07:27 107 3 gusting 9 22.2
2015-Jul-31 07:12 078 3 gusting 10 22.2
2015-Jul-31 06:57 030 4 gusting 10 22.8
2015-Jul-31 06:42 075 5 gusting 10 23.3
2015-Jul-31 06:27 069 6 gusting 10 23.9
2015-Jul-31 06:12 108 6 gusting 11 23.9
2015-Jul-31 05:57 085 4 gusting 9 24.4
2015-Jul-31 05:42 048 5 gusting 10 24.4
2015-Jul-31 05:27 078 6 gusting 12 25.0
2015-Jul-31 05:12 027 3 gusting 10 25.0
2015-Jul-31 04:57 049 6 gusting 12 25.0
2015-Jul-31 04:42 052 4 gusting 10 25.0
2015-Jul-31 04:26 079 6 gusting 11 25.0
2015-Jul-31 04:11 096 5 gusting 10 25.6
2015-Jul-31 03:56 142 2 gusting 8 25.6
2015-Jul-31 03:41 104 5 gusting 12 25.0
2015-Jul-31 03:26 071 5 gusting 9 25.6
2015-Jul-31 03:11 072 6 gusting 9 25.6
2015-Jul-31 02:56 105 4 gusting 10 25.0
2015-Jul-31 02:41 096 5 gusting 13 24.4
2015-Jul-31 02:26 069 5 gusting 12 24.4
2015-Jul-31 02:11 096 6 gusting 13 23.9
2015-Jul-31 01:56 079 6 gusting 13 23.9
2015-Jul-31 01:41 099 6 gusting 13 23.9
2015-Jul-31 01:26 124 5 gusting 13 23.9
2015-Jul-31 01:11 142 6 gusting 13 23.9
2015-Jul-31 00:56 099 6 gusting 13 23.3
2015-Jul-31 00:41 118 4 gusting 10 23.3
2015-Jul-31 00:26 094 5 gusting 11 23.3
2015-Jul-31 00:11 141 4 gusting 10 23.3
2015-Jul-30 23:56 113 4 gusting 11 22.8
2015-Jul-30 23:41 134 4 gusting 9 22.2
2015-Jul-30 23:26 093 4 gusting 10 22.2
2015-Jul-30 23:11 127 4 gusting 10 21.7
2015-Jul-30 22:56 064 4 gusting 8 20.6
2015-Jul-30 22:41 145 3 gusting 6 18.9
2015-Jul-30 22:25 160 1 gusting 5 17.2
2015-Jul-30 22:10 180 1 gusting 3 16.7
2015-Jul-30 21:55 254 15.6
2015-Jul-30 21:40 254 14.4
2015-Jul-30 21:25 254 13.3
2015-Jul-30 21:10 254 12.8
2015-Jul-30 20:55 254 12.8
2015-Jul-30 20:40 192 12.8
2015-Jul-30 20:25 192 12.8
2015-Jul-30 20:10 192 12.8
2015-Jul-30 19:55 129 12.8
2015-Jul-30 19:40 129 13.3
2015-Jul-30 19:25 148 13.3
2015-Jul-30 19:10 148 13.3
2015-Jul-30 18:55 148 13.3
2015-Jul-30 18:40 148 13.9
2015-Jul-30 18:25 148 13.9
2015-Jul-30 18:10 148 14.4
2015-Jul-30 17:55 126 14.4
2015-Jul-30 17:40 152 0 gusting 3 15.0
2015-Jul-30 17:25 135 0 gusting 2 15.0
2015-Jul-30 17:10 127 15.6
2015-Jul-30 16:55 133 0 gusting 4 15.6
2015-Jul-30 16:40 143 1 gusting 6 16.1
2015-Jul-30 16:25 115 1 gusting 4 16.1
2015-Jul-30 16:10 138 1 gusting 4 16.1
2015-Jul-30 15:55 126 0 gusting 2 16.1
2015-Jul-30 15:40 126 1 gusting 5 16.7
2015-Jul-30 15:25 107 0 gusting 3 17.2
2015-Jul-30 15:10 121 1 gusting 5 17.2
2015-Jul-30 14:55 098 1 gusting 5 17.2
2015-Jul-30 14:40 128 0 gusting 2 16.7
2015-Jul-30 14:25 131 0 gusting 2 16.7
2015-Jul-30 14:10 121 0 gusting 4 17.2
2015-Jul-30 13:54 175 1 gusting 5 17.8
2015-Jul-30 13:39 146 1 gusting 4 17.8
2015-Jul-30 13:24 108 2 gusting 6 18.3
2015-Jul-30 13:09 109 1 gusting 6 18.3
2015-Jul-30 12:54 110 2 gusting 13 18.9
2015-Jul-30 12:39 128 6 gusting 12 18.9
2015-Jul-30 12:24 118 2 gusting 7 17.8
2015-Jul-30 12:09 087 1 gusting 4 17.8
2015-Jul-30 11:54 127 1 gusting 4 18.3
2015-Jul-30 11:39 118 1 gusting 7 18.9
2015-Jul-30 11:24 129 6 gusting 13 19.4
2015-Jul-30 11:09 152 4 gusting 12 19.4
2015-Jul-30 10:54 114 6 gusting 13 20.0
2015-Jul-30 10:39 106 5 gusting 11 20.0
2015-Jul-30 10:24 089 6 gusting 10 19.4
2015-Jul-30 10:09 112 2 gusting 6 19.4
2015-Jul-30 09:54 070 3 gusting 6 19.4
2015-Jul-30 09:39 071 2 gusting 6 19.4
2015-Jul-30 09:24 075 2 gusting 6 20.0
2015-Jul-30 09:09 098 3 gusting 6 20.0
2015-Jul-30 08:54 077 3 gusting 8 20.6
2015-Jul-30 08:39 073 6 gusting 13 20.6
2015-Jul-30 08:24 072 5 gusting 10 20.6
2015-Jul-30 08:09 077 4 gusting 10 20.6
2015-Jul-30 07:54 093 3 gusting 7 21.1
2015-Jul-30 07:39 067 4 gusting 12 21.7
2015-Jul-30 07:24 063 5 gusting 9 22.2
2015-Jul-30 07:09 048 6 gusting 10 22.8
2015-Jul-30 06:54 096 6 gusting 15 22.8
2015-Jul-30 06:39 061 5 gusting 12 23.3
2015-Jul-30 06:24 089 6 gusting 12 23.3
2015-Jul-30 06:09 084 6 gusting 12 23.9
2015-Jul-30 05:54 066 6 gusting 12 23.9
2015-Jul-30 05:24 048 7 gusting 13 23.9
2015-Jul-30 05:09 053 6 gusting 13 23.9